Date,TemperatureHighF,TemperatureAvgF,TemperatureLowF,DewpointHighF,DewpointAvgF,DewpointLowF,HumidityHigh,HumidityAvg,HumidityLow,PressureMaxIn,PressureMinIn,WindSpeedMaxMPH,WindSpeedAvgMPH,GustSpeedMaxMPH,PrecipitationSumIn
2013-7-1,77,74,71,73,71,69,94,89,80,30.07,29.93,0,0,0,0.85
2013-7-2,83,77,73,74,71,69,93,82,66,30.20,30.07,0,0,0,0.07
2013-7-3,86,78,72,72,69,68,89,76,58,30.27,30.19,0,0,0,0.01
2013-7-4,90,81,71,72,69,68,94,70,48,30.28,30.18,0,0,5,0.00
2013-7-5,91,81,71,71,68,64,93,67,41,30.25,30.12,0,0,5,0.00
2013-7-6,92,82,73,71,69,66,89,66,46,30.17,30.06,1,0,5,0.00
2013-7-7,93,83,73,73,70,66,86,66,45,30.10,29.97,0,0,0,0.09
2013-7-8,88,77,70,67,64,-100,85,68,44,30.08,30.01,0,0,0,0.09
2013-7-9,88,78,69,68,66,63,89,69,46,30.11,30.02,0,0,0,0.00
2013-7-10,86,78,72,72,66,-100,88,69,54,30.06,29.85,3,0,14,0.02
2013-7-11,84,77,70,73,67,62,92,73,48,29.97,29.84,0,0,0,0.22
2013-7-12,77,72,68,69,64,59,93,75,62,30.14,29.97,0,0,0,0.12
2013-7-13,80,72,66,73,69,64,96,90,74,30.32,30.14,0,0,0,0.20
2013-7-14,91,81,73,73,70,66,94,73,47,30.38,30.27,0,0,0,0.01
2013-7-15,93,82,75,72,69,66,83,66,42,30.29,30.18,0,0,0,0.00
2013-7-16,92,82,72,71,67,63,83,62,38,30.25,30.17,0,0,0,0.00
2013-7-17,94,81,73,71,68,63,85,67,37,30.24,30.10,0,0,0,0.00
2013-7-18,95,84,76,73,69,65,80,63,38,30.11,29.99,0,0,0,0.00
2013-7-19,95,85,75,73,70,69,85,65,43,30.01,29.84,0,0,3,0.00
2013-7-20,92,81,75,71,66,-100,79,63,43,29.88,29.78,0,0,3,0.01
2013-7-21,87,79,72,69,64,59,85,63,42,30.00,29.88,0,0,0,0.01
2013-7-22,84,75,68,73,68,64,93,80,60,30.00,29.85,0,0,0,0.89
2013-7-23,87,78,72,73,70,67,95,80,52,29.85,29.61,0,0,0,2.20
2013-7-24,80,74,66,68,62,52,90,68,46,29.99,29.67,0,0,0,0.19
2013-7-25,68,65,61,58,54,49,79,68,62,30.09,29.99,0,0,0,0.00
2013-7-26,83,71,65,61,59,56,83,67,42,30.08,30.03,0,0,0,0.02
2013-7-27,85,78,66,62,59,55,83,53,36,30.08,29.98,0,0,0,0.01
2013-7-28,76,70,65,69,66,61,95,87,70,30.02,29.96,0,0,0,0.64
2013-7-29,83,71,64,68,62,52,97,77,38,30.14,29.99,0,0,0,0.01
2013-7-30,80,69,59,60,56,54,87,65,43,30.21,30.14,0,0,0,0.00
2013-7-31,81,70,59,63,59,56,91,70,45,30.20,30.07,0,0,0,0.00